Buger, Spain

12:08 AM CEST on June 28, 2017 (GMT +0200)
Buger

Weather History for 08306 - January, 2014

Change the Weather History Date:

Friday, January 3, 2014

  Actual Average Record
Temperature  
Mean Temperature 59 °F -  
Max Temperature 66 °F 57 °F - ()
Min Temperature 52 °F 39 °F - ()
Degree Days  
Heating Degree Days 6    
Growing Degree Days 9 (Base 50)    
Moisture  
Dew Point 55 °F    
Average Humidity 84    
Maximum Humidity 100    
Minimum Humidity 58    
Precipitation  
Precipitation 0.00 in 0.05 in - ()
Sea Level Pressure  
Sea Level Pressure 30.05 in    
Wind  
Wind Speed 6 mph ()    
Max Wind Speed 21 mph    
Max Gust Speed -    
Visibility 7.2 miles    
Events      
T = Trace of Precipitation, MM = Missing Value Source: Averaged Metar Reports

Daily Weather History Graph

Daily Weather History Graph

Search for Another Location

Airport or City:

Trip Planner

Search our weather history database for the weather conditions in past years. The results will help you decide how hot, cold, wet, or windy it might be!

Date:

Astronomy

Jan. 03, 2014 Rise Set
Actual Time 8:09 AM CET 5:37 PM CET
Civil Twilight 7:39 AM CET 6:07 PM CET
Nautical Twilight 7:06 AM CET 6:41 PM CET
Astronomical Twilight 6:33 AM CET 7:13 PM CET
Moon 9:25 AM CET (1/3) 8:27 PM CET (1/3)
Length of Visible Light 10h 27m
Length of Day
9h 27m
Waxing Crescent, 6% of the Moon is Illuminated
Jan 3
Waxing Crescent
Jan 8
First Quarter
Jan 16
Full
Jan 24
Last Quarter
Jan 30
New

Hourly Weather History & Observations

Time (CET) Temp. Dew Point Humidity Pressure Visibility Wind Dir Wind Speed Gust Speed Precip Events Conditions
12:00 AM 54 °F 53 °F 95% 30.02 in - WSW 2.3 mph - -  
12:00 AM 55.4 °F 53.6 °F 94% 30.01 in 6.2 mi South 2.3 mph - N/A   Partly Cloudy
12:30 AM 53.6 °F 53.6 °F 100% 30.01 in 6.2 mi SE 1.2 mph - N/A   Scattered Clouds
1:00 AM 54 °F 53 °F 95% 30.01 in 12 mi SW 2.3 mph - -   Scattered Clouds
1:00 AM 53.6 °F 53.6 °F 100% 30.01 in 6.2 mi Calm Calm - N/A   Scattered Clouds
1:30 AM 55.4 °F 53.6 °F 94% 30.01 in 6.2 mi SSW 3.5 mph - N/A   Scattered Clouds
2:00 AM 53 °F 52 °F 95% 30.00 in - West 3.5 mph - -  
2:00 AM 53.6 °F 51.8 °F 94% 30.01 in 6.2 mi Variable 1.2 mph - N/A   Partly Cloudy
2:30 AM 53.6 °F 51.8 °F 94% 30.01 in 6.2 mi Variable 2.3 mph - N/A   Partly Cloudy
3:00 AM 56 °F 54 °F 92% 30.01 in - SW 9.2 mph - -  
3:00 AM 57.2 °F 55.4 °F 94% 30.01 in 6.2 mi Calm Calm - N/A   Partly Cloudy
3:30 AM 55.4 °F 55.4 °F 100% 30.01 in 6.2 mi Calm Calm - N/A   Partly Cloudy
4:00 AM 56 °F 54 °F 93% 30.01 in 12 mi WSW 3.5 mph - -   Scattered Clouds
4:00 AM 55.4 °F 53.6 °F 94% 30.01 in 6.2 mi Variable 1.2 mph - N/A   Partly Cloudy
4:30 AM 55.4 °F 53.6 °F 94% 30.01 in 6.2 mi SE 5.8 mph - N/A   Partly Cloudy
5:00 AM 55 °F 53 °F 92% 30.01 in - ESE 3.5 mph - -  
5:00 AM 55.4 °F 53.6 °F 94% 30.01 in 6.2 mi SSE 4.6 mph - N/A   Partly Cloudy
5:30 AM 55.4 °F 53.6 °F 94% 30.01 in 6.2 mi SSE 5.8 mph - N/A   Partly Cloudy
6:00 AM 56 °F 54 °F 93% 30.01 in - SSE 5.8 mph - -  
6:00 AM 55.4 °F 55.4 °F 100% 30.01 in 6.2 mi South 5.8 mph - N/A   Partly Cloudy
6:30 AM 57.2 °F 55.4 °F 94% 30.01 in 6.2 mi South 3.5 mph - N/A   Partly Cloudy
7:00 AM 56 °F 54 °F 91% 30.02 in 12 mi South 9.2 mph - -   Scattered Clouds
7:00 AM 57.2 °F 55.4 °F 94% 30.01 in 6.2 mi South 6.9 mph - N/A   Partly Cloudy
7:30 AM 57.2 °F 53.6 °F 88% 30.01 in 6.2 mi SSE 6.9 mph - N/A   Partly Cloudy
8:00 AM 57 °F 54 °F 88% 30.03 in - SSW 9.2 mph - -  
8:00 AM 57.2 °F 53.6 °F 88% 30.01 in 6.2 mi SSE 8.1 mph - N/A   Partly Cloudy
8:30 AM 55.4 °F 53.6 °F 94% 30.04 in 6.2 mi South 4.6 mph - N/A   Partly Cloudy
9:00 AM 58 °F 56 °F 89% 30.05 in - SSW 9.2 mph - -  
9:00 AM 57.2 °F 55.4 °F 94% 30.04 in 6.2 mi South 6.9 mph - N/A   Partly Cloudy
9:30 AM 59.0 °F 57.2 °F 94% 30.06 in 6.2 mi SW 3.5 mph - N/A   Partly Cloudy
10:00 AM 61 °F 56 °F 79% 30.07 in 12 mi SW 4.6 mph - -   Scattered Clouds
10:00 AM 60.8 °F 57.2 °F 88% 30.06 in 6.2 mi SW 3.5 mph - N/A   Partly Cloudy
10:30 AM 62.6 °F 57.2 °F 82% 30.06 in 6.2 mi SW 9.2 mph - N/A   Partly Cloudy
11:00 AM 65 °F 55 °F 63% 30.09 in - SSW 11.5 mph - -  
11:00 AM 64.4 °F 55.4 °F 73% 30.06 in 6.2 mi SSW 10.4 mph - N/A   Partly Cloudy
11:30 AM 62.6 °F 57.2 °F 82% 30.06 in 6.2 mi SSW 9.2 mph - N/A   Partly Cloudy
12:00 PM 65 °F 57 °F 68% 30.09 in - SSW 8.1 mph - -  
12:00 PM 64.4 °F 57.2 °F 77% 30.06 in 6.2 mi SW 8.1 mph - N/A   Partly Cloudy
12:30 PM 64.4 °F 57.2 °F 77% 30.06 in 6.2 mi SSW 10.4 mph - N/A   Partly Cloudy
1:00 PM 66 °F 58 °F 67% 30.07 in 16 mi SW 15.0 mph - -   Scattered Clouds
1:00 PM 64.4 °F 57.2 °F 77% 30.06 in 6.2 mi SW 16.1 mph - N/A   Partly Cloudy
1:30 PM 64.4 °F 59.0 °F 83% 30.04 in 6.2 mi SW 15.0 mph - N/A   Partly Cloudy
2:00 PM 66 °F 56 °F 63% 30.05 in - SW 18.4 mph - -  
2:00 PM 64.4 °F 57.2 °F 77% 30.04 in 6.2 mi SW 15.0 mph - N/A   Partly Cloudy
2:30 PM 64.4 °F 55.4 °F 73% 30.04 in 6.2 mi SW 16.1 mph - N/A   Partly Cloudy
3:00 PM 65 °F 55 °F 61% 30.05 in - WSW 20.7 mph - -  
3:00 PM 64.4 °F 55.4 °F 73% 30.04 in 6.2 mi WSW 19.6 mph - N/A   Partly Cloudy
3:30 PM 64.4 °F 55.4 °F 73% 30.04 in 6.2 mi WSW 19.6 mph - N/A   Partly Cloudy
4:00 PM 64 °F 54 °F 62% 30.06 in 16 mi WSW 17.3 mph - -   Scattered Clouds
4:00 PM 64.4 °F 55.4 °F 73% 30.04 in 6.2 mi WSW 19.6 mph - N/A   Partly Cloudy
4:30 PM 62.6 °F 53.6 °F 72% 30.04 in 6.2 mi SW 12.7 mph - N/A   Partly Cloudy
5:00 PM 64 °F 53 °F 60% 30.06 in - WSW 11.5 mph - -  
5:00 PM 62.6 °F 53.6 °F 72% 30.04 in 6.2 mi WSW 11.5 mph - N/A   Partly Cloudy
5:30 PM 60.8 °F 53.6 °F 77% 30.04 in 6.2 mi WSW 10.4 mph - N/A   Partly Cloudy
6:00 PM 62 °F 51 °F 58% 30.07 in - WSW 10.4 mph - -  
6:00 PM 62.6 °F 51.8 °F 68% 30.06 in 6.2 mi SW 10.4 mph - N/A   Partly Cloudy
6:30 PM 60.8 °F 51.8 °F 72% 30.06 in 6.2 mi SW 11.5 mph - N/A   Partly Cloudy
7:00 PM 60 °F 55 °F 79% 30.08 in 12 mi SW 16.1 mph - -   Scattered Clouds
7:00 PM 60.8 °F 55.4 °F 82% 30.06 in 6.2 mi SW 16.1 mph - N/A   Partly Cloudy
7:30 PM 59.0 °F 55.4 °F 88% 30.06 in 6.2 mi SW 10.4 mph - N/A   Partly Cloudy
8:00 PM 59 °F 54 °F 78% 30.09 in - WSW 13.8 mph - -  
8:00 PM 59.0 °F 55.4 °F 88% 30.06 in 6.2 mi SW 11.5 mph - N/A   Partly Cloudy
8:30 PM 59.0 °F 53.6 °F 82% 30.09 in 6.2 mi SW 9.2 mph - N/A   Partly Cloudy
9:00 PM 58 °F 54 °F 82% 30.10 in - SW 9.2 mph - -  
9:00 PM 59.0 °F 53.6 °F 82% 30.09 in 6.2 mi SSW 4.6 mph - N/A   Partly Cloudy
9:30 PM 59.0 °F 55.4 °F 88% 30.09 in 6.2 mi South 9.2 mph - N/A   Partly Cloudy
10:00 PM 58 °F 56 °F 90% 30.11 in 12 mi South 8.1 mph - -   Scattered Clouds
10:00 PM 59.0 °F 57.2 °F 94% 30.09 in 6.2 mi South 8.1 mph - N/A   Partly Cloudy
10:30 PM 59.0 °F 57.2 °F 94% 30.09 in 6.2 mi South 4.6 mph - N/A   Partly Cloudy
11:00 PM 58 °F 56 °F 90% 30.10 in - SSW 6.9 mph - -  
11:00 PM 57.2 °F 55.4 °F 94% 30.09 in 6.2 mi SSE 3.5 mph - N/A   Partly Cloudy
11:30 PM 57.2 °F 55.4 °F 94% 30.09 in 6.2 mi South 5.8 mph - N/A   Partly Cloudy